Terminal Aerodrome Forecast
Issued by NWS Omaha/Valley, NE

Home | Current Version | Previous Version | Graphics & Text | Print | Product List | Glossary On
Versions: 1 2 3 4 5 6 7 8 9 10 11 12 13 14 15 16 17 18 19 20 21 22 23 24 25 26 27 28 29 30 31 32 33 34 35 36 37 38 39 40 41 42 43 44 45
000
FTUS43 KOAX 261129 AAA
TAFOFK
TAF AMD
KOFK 261129Z 2611/2712 32003KT P6SM BKN005
      TEMPO 2612/2616 4SM -RA BKN012
     FM261600 35010KT P6SM BKN025
     FM262000 34013KT P6SM BKN040
     FM270100 33005KT P6SM SCT090=

USA.gov is the U.S. government's official web portal to all federal, state and local government web resources and services.